Theta_e
314 320 322 320 324 325 324 322 320 326 325 319 320 320 319 317 316 315 313 310 306 308 311 309 308 308 307 307 307 307 304 304 303 301 300 300 299 298 297 296 296 295 295 295 294 294 294 294 294 293 292 292 292 291 291 290 290 289 289 289 289 289 288 288 287 287 287 287 287 287 287 287 286 286 286 286 285 285 284 284 283 283 283 284 284 284
312 319 322 321 322 323 323 318 314 316 315 314 318 317 317 316 316 313 309 309 308 308 311 310 309 309 307 306 306 306 306 306 305 303 301 301 300 299 297 297 296 296 296 296 294 294 294 294 294 293 292 292 291 291 291 290 290 289 289 289 288 288 288 287 287 287 287 287 287 287 287 286 286 286 286 286 285 284 284 284 283 283 283 283 283 283
318 321 320 321 318 314 313 310 311 316 314 315 317 316 317 316 315 314 309 308 307 307 312 312 310 309 308 307 307 307 307 308 307 306 304 302 301 300 298 298 297 296 296 296 295 294 293 293 293 292 291 291 291 291 291 290 290 289 289 288 288 288 287 287 287 287 287 287 286 286 286 285 285 285 285 285 285 285 285 284 283 284 283 283 282 282
323 324 319 316 314 313 313 309 311 315 314 316 317 318 320 316 316 317 313 309 308 307 310 311 308 308 308 307 308 308 308 308 308 307 306 303 303 302 300 299 298 297 296 296 295 294 293 292 292 291 290 290 290 290 291 290 290 289 289 288 288 288 287 287 287 286 286 286 285 285 285 284 285 285 285 285 285 284 284 284 284 284 283 282 283 283
323 320 309 307 310 317 318 311 311 313 316 319 317 316 319 317 317 318 315 311 311 310 308 309 311 312 313 310 309 309 307 307 306 306 306 304 303 303 302 301 299 298 297 296 295 294 293 292 291 290 290 290 290 290 290 290 290 289 289 288 288 288 287 287 286 286 285 285 284 284 283 284 284 284 284 284 284 283 283 283 283 283 282 282 283 283
321 313 306 310 310 315 320 316 315 315 318 323 321 317 317 318 317 314 313 313 317 318 309 309 314 315 317 315 312 312 311 312 309 307 307 304 302 302 302 301 300 299 298 297 296 295 294 292 291 290 289 289 289 290 290 290 290 289 289 288 288 288 287 287 286 285 285 284 284 283 283 283 282 282 282 282 282 281 281 281 281 282 282 282 282 283
318 307 307 317 315 314 317 317 317 315 316 321 319 316 314 313 313 312 312 313 321 321 310 310 317 316 315 316 318 319 317 318 316 313 312 307 304 302 301 301 300 299 298 297 296 295 294 293 291 290 289 289 289 289 290 290 290 289 289 288 288 287 287 286 286 285 284 284 283 283 282 282 282 282 282 282 281 281 281 281 282 282 283 282 282 283
315 308 309 314 315 315 315 317 317 313 318 322 315 314 315 313 314 315 313 313 316 313 309 312 314 313 314 314 316 317 315 315 313 313 313 310 308 304 302 301 300 300 298 297 296 295 295 293 292 290 289 289 289 289 290 290 290 289 289 288 288 287 287 286 286 285 284 284 283 283 282 281 281 281 281 281 280 280 281 281 282 282 282 282 282 283
312 315 315 313 314 316 315 318 315 312 318 319 309 309 314 314 316 315 312 312 311 309 313 315 309 311 316 314 313 311 311 314 313 312 312 311 311 307 304 301 300 300 298 297 297 296 295 293 292 291 290 289 289 289 290 290 290 289 288 288 288 287 286 286 285 284 284 283 283 282 281 281 281 280 280 280 280 280 279 280 280 280 280 281 282 282
311 312 313 314 317 317 316 312 307 312 316 311 305 308 310 310 311 311 311 312 312 312 316 315 310 312 316 316 314 310 310 315 315 312 311 310 311 310 307 303 300 299 298 298 297 296 295 294 292 291 290 289 288 289 290 290 290 289 288 288 287 287 286 286 285 284 284 283 282 282 281 280 280 280 279 279 279 279 278 278 279 278 278 280 281 280
308 304 306 313 316 314 312 306 302 309 310 305 308 315 315 311 307 309 312 311 314 318 318 314 311 312 315 316 315 312 315 320 318 315 312 311 312 312 309 304 301 299 298 297 296 296 294 293 292 291 289 288 288 289 290 290 290 289 288 288 287 287 286 285 285 284 283 283 282 281 280 280 280 279 279 279 279 279 278 278 277 277 279 280 279 279
308 307 310 313 311 309 311 308 304 303 304 307 315 319 319 317 312 314 315 313 317 322 318 312 308 309 314 315 313 313 314 316 318 319 320 319 318 317 312 305 300 299 298 297 296 296 294 292 291 289 289 288 287 288 289 289 289 289 288 288 287 287 286 285 285 284 283 282 282 281 280 279 279 279 278 278 278 278 277 277 277 277 279 280 279 278
315 313 312 309 306 309 316 315 308 304 304 310 317 320 321 320 320 322 320 316 320 320 313 307 307 308 311 312 311 312 313 313 313 314 320 324 325 324 318 308 302 299 298 297 296 295 294 292 290 288 288 288 287 288 288 288 289 288 288 288 287 287 286 285 285 284 283 282 281 280 280 279 279 278 278 277 277 277 276 276 276 277 277 278 278 277
320 315 309 309 309 310 315 316 314 312 308 309 316 321 322 322 326 330 325 316 316 317 310 304 308 311 310 311 311 310 310 313 312 309 312 319 324 324 316 308 305 301 297 296 296 294 293 292 290 288 288 288 287 287 287 288 288 288 288 287 287 286 285 285 284 283 283 282 281 280 279 279 278 278 278 277 276 276 276 275 275 276 276 276 276 276
320 316 312 313 314 310 310 313 317 316 309 308 314 316 318 325 330 331 328 319 316 320 314 305 310 315 312 312 315 312 309 310 311 309 308 310 312 311 307 305 306 302 297 295 294 294 293 292 290 289 288 288 287 287 287 288 288 288 288 287 287 286 285 285 284 283 282 281 281 280 279 279 278 278 277 277 277 276 276 275 275 276 276 276 276 276
316 317 315 309 309 308 309 312 312 312 310 309 311 313 316 321 320 318 319 316 315 320 316 309 312 315 311 311 315 315 312 311 311 309 308 310 308 305 305 305 305 302 297 294 294 293 292 291 290 289 288 288 287 287 287 287 288 288 288 287 287 286 285 284 283 283 282 281 280 279 279 278 278 277 277 277 277 276 275 275 275 276 276 276 276 277
316 319 311 304 307 305 304 308 309 312 313 309 310 314 314 312 313 318 317 310 310 316 317 316 315 312 309 311 312 311 311 312 311 308 308 310 307 305 306 305 304 302 298 295 293 293 292 290 289 289 288 288 287 287 287 287 288 288 288 287 287 285 284 284 283 282 281 281 280 279 279 278 278 277 277 277 277 276 275 276 276 276 276 277 277 276
317 318 310 305 310 304 297 303 307 307 309 311 316 315 310 308 312 318 319 317 316 317 318 319 315 311 312 313 310 310 311 311 310 307 308 308 306 305 306 305 304 302 298 295 293 292 291 290 289 289 288 288 287 287 287 287 288 288 288 287 286 285 284 283 282 281 281 280 279 279 279 278 277 277 276 276 276 275 276 277 277 277 277 277 277 276
316 315 314 306 308 304 298 304 310 305 302 308 313 308 308 314 316 315 317 319 319 317 320 321 314 312 313 312 312 312 314 313 310 307 307 306 305 305 305 304 302 300 298 295 293 291 291 290 289 288 288 287 287 287 287 287 288 288 287 287 286 285 284 283 282 281 280 279 279 279 278 277 277 276 276 276 275 275 276 277 277 277 277 277 276 275
315 314 317 307 302 305 303 306 313 309 302 303 305 303 306 313 316 316 315 316 318 317 317 316 313 313 314 316 318 314 313 314 312 312 309 306 305 304 303 304 302 300 298 295 293 291 291 290 288 288 288 287 287 287 287 287 287 287 286 285 284 283 283 282 281 280 279 279 278 278 277 277 276 276 276 276 275 276 277 277 276 276 276 275 275 274
314 314 316 310 301 306 309 309 312 312 307 305 306 306 306 307 311 314 312 313 318 317 317 315 313 313 313 316 319 315 314 312 312 315 314 309 307 304 303 303 302 301 298 295 293 292 290 289 287 287 287 287 286 286 286 286 286 286 285 285 284 283 282 281 280 279 278 278 277 277 276 276 276 276 276 275 276 277 277 276 276 276 275 274 274 273
317 316 315 314 310 310 311 308 307 310 310 307 308 309 307 307 310 312 311 312 313 315 318 317 313 312 313 316 318 317 317 314 311 313 315 314 314 311 307 302 301 301 298 295 293 291 290 289 287 286 286 286 286 285 285 285 285 285 284 283 283 282 281 280 279 278 278 277 276 276 276 276 276 276 276 276 276 277 276 276 276 275 274 273 273 272
320 320 315 316 316 312 308 302 301 306 309 309 309 309 308 307 309 312 313 313 312 311 313 314 313 312 313 319 321 320 321 319 313 312 315 316 316 315 311 303 299 298 297 295 292 291 290 288 286 286 285 285 285 285 284 284 284 284 284 283 282 281 280 279 278 277 277 276 276 276 275 275 275 275 275 276 276 276 276 276 275 275 273 272 271 270
317 318 314 314 316 313 305 301 301 304 307 310 311 308 307 307 307 311 312 311 313 313 312 313 314 311 311 316 319 320 321 319 314 311 313 315 312 310 308 303 298 296 295 294 292 290 289 287 286 285 285 285 284 284 283 283 283 283 283 282 281 280 279 278 277 276 276 275 275 275 275 275 275 275 275 276 276 276 275 275 274 274 272 271 270 269
314 317 316 315 317 316 311 307 307 306 307 311 312 308 307 307 307 310 310 309 311 312 311 313 313 310 310 313 314 313 313 312 311 308 307 308 308 307 305 301 296 294 294 293 291 290 288 287 286 286 285 285 284 283 282 282 282 282 282 281 281 279 278 277 276 275 275 275 275 275 275 275 275 275 275 275 275 275 274 273 273 272 271 269 268 268
315 318 315 314 316 316 313 311 313 312 308 307 310 309 307 307 307 309 310 309 310 310 310 311 311 310 310 310 310 310 309 308 309 306 302 301 302 302 303 303 298 295 294 293 291 289 288 287 286 286 285 285 284 283 282 281 282 281 281 280 279 278 277 276 275 274 274 274 274 275 275 274 274 274 274 274 274 273 273 272 271 270 269 268 267 267
318 318 313 314 315 312 311 311 313 316 313 310 311 310 307 307 307 308 310 310 310 310 311 310 310 310 310 309 309 309 309 308 308 307 305 303 302 301 301 301 298 295 293 292 290 288 287 287 286 286 285 284 283 282 281 281 281 281 280 279 278 277 276 274 274 273 273 274 274 274 274 274 274 274 274 273 273 272 272 271 270 268 267 267 266 266
318 317 312 313 313 311 311 310 312 315 314 313 313 310 308 307 307 308 310 309 311 312 312 310 309 310 310 309 309 309 308 308 308 308 308 307 307 305 301 299 297 295 293 291 289 288 287 287 286 285 285 284 283 282 281 281 280 280 279 278 277 276 274 274 273 273 273 273 274 274 273 273 273 273 273 273 272 272 271 270 268 267 266 266 266 265
314 314 312 313 312 311 311 310 311 312 310 310 312 311 309 307 306 308 308 308 309 311 311 310 310 310 309 308 309 309 308 308 308 307 307 308 309 308 305 300 298 296 293 290 289 288 287 287 286 285 285 283 282 281 280 279 279 278 278 277 276 275 273 273 273 273 273 273 273 273 273 273 273 273 273 272 271 271 270 268 267 266 266 266 265 265
312 312 312 312 311 311 311 310 310 310 308 308 309 310 309 307 306 307 307 307 308 308 309 309 309 309 309 308 308 308 308 308 308 307 307 308 308 308 307 303 299 297 294 291 290 288 287 287 286 285 284 283 282 281 279 277 277 277 276 275 275 273 273 273 272 272 273 272 272 272 272 272 273 273 272 271 271 270 268 267 266 265 265 266 265 265
309 311 312 312 311 311 311 310 310 309 309 308 308 308 308 307 307 306 306 306 307 307 307 307 308 308 308 307 308 307 308 307 307 307 307 307 307 307 307 306 303 299 295 292 290 289 287 287 286 285 284 283 281 280 278 277 276 276 275 274 273 272 272 272 272 272 272 272 272 272 272 272 272 272 271 271 270 269 267 266 265 265 265 265 265 265
309 311 312 312 313 312 311 311 312 311 309 309 309 309 309 309 308 307 307 307 307 307 307 307 308 308 307 307 307 307 308 307 307 308 307 307 308 307 307 307 306 302 297 294 291 289 287 287 286 285 284 282 281 279 277 276 275 274 274 273 272 272 272 271 272 272 272 272 271 271 272 272 272 271 271 270 268 267 266 266 265 265 265 265 265 265
310 310 311 312 312 312 312 313 313 313 312 311 310 310 309 310 310 309 309 309 308 308 308 309 309 308 307 308 308 308 309 308 308 308 308 308 307 307 307 307 306 305 301 296 292 289 288 287 286 285 284 282 280 278 277 276 275 274 273 273 272 271 271 271 272 272 271 271 271 271 271 271 271 271 270 268 267 267 266 266 265 265 265 265 264 264
309 309 310 311 311 312 312 312 313 314 313 313 313 313 312 310 311 310 310 310 309 309 309 309 309 308 309 309 309 309 309 308 309 308 308 309 309 309 308 307 306 305 302 297 293 290 288 287 286 284 283 281 279 278 276 276 275 274 273 272 272 271 271 271 271 271 271 271 270 270 271 271 270 269 268 267 267 266 266 267 266 265 265 264 264 264
309 308 309 310 311 311 312 312 313 314 313 312 314 315 312 310 311 311 310 310 310 309 309 309 309 309 309 309 309 309 309 308 309 308 308 311 311 309 307 307 306 304 301 297 293 290 288 287 285 283 282 280 278 276 275 274 274 273 272 271 271 271 271 271 271 271 271 270 270 270 271 270 269 268 267 266 266 267 268 268 266 265 265 264 264 263
309 309 309 310 310 310 311 312 313 313 312 311 312 311 309 310 310 310 311 310 309 309 309 309 309 309 309 309 309 309 308 309 308 307 308 310 310 307 306 306 305 304 302 298 293 290 288 286 285 283 280 278 276 275 274 273 273 272 270 270 270 271 271 271 271 270 270 270 270 270 270 269 268 267 266 266 267 268 269 268 266 265 264 264 263 263
309 310 310 310 311 311 311 311 312 312 312 311 311 309 310 310 310 310 311 311 309 309 309 309 309 308 308 309 308 308 308 308 308 307 307 308 308 305 304 304 304 302 300 296 292 289 287 285 284 281 278 276 274 274 273 272 272 271 269 269 270 270 270 270 270 270 270 270 270 270 269 267 266 266 266 266 267 269 269 267 266 265 264 263 263 263
307 309 310 310 311 312 311 312 312 312 313 312 310 310 311 312 311 311 311 311 310 309 309 309 309 309 309 309 308 309 309 309 309 308 307 308 308 306 305 303 300 299 297 293 289 286 284 283 281 278 276 274 272 272 272 271 271 270 268 268 269 269 269 270 270 270 270 270 270 270 268 266 265 265 266 267 267 267 267 266 265 264 263 262 262 262
308 308 309 310 311 312 312 313 312 313 313 311 310 311 313 312 311 311 311 311 311 309 309 310 309 309 309 309 308 310 311 310 309 309 307 308 308 307 306 301 295 293 291 288 286 284 281 279 277 275 274 272 270 270 271 270 270 269 268 267 268 269 269 269 269 270 270 270 270 268 267 266 265 264 265 267 268 267 266 265 264 263 263 262 262 262
309 308 309 310 311 311 312 313 312 312 312 312 312 311 310 309 310 312 312 313 311 310 310 309 309 309 309 309 310 311 311 310 310 309 306 305 303 300 299 296 293 290 288 284 283 281 278 276 275 273 272 271 269 269 270 269 269 268 267 267 267 268 269 269 269 269 270 270 269 267 266 266 266 265 265 267 268 267 266 264 263 263 262 262 262 262
309 309 309 309 310 310 312 313 313 312 312 313 313 309 306 308 312 313 314 314 311 313 313 310 310 310 309 309 309 309 309 308 308 307 303 299 298 294 291 290 288 286 284 281 279 278 275 274 274 272 271 270 269 268 269 269 268 267 267 267 267 268 269 269 269 269 270 269 268 266 266 266 266 266 266 266 267 267 267 265 263 262 262 261 262 262
310 310 310 310 310 310 311 312 312 312 312 312 311 307 306 310 313 313 313 311 311 314 315 312 310 310 309 309 308 308 308 307 306 305 300 297 296 292 287 285 284 282 280 279 277 276 274 273 272 270 269 268 267 268 268 269 268 266 266 266 267 268 268 268 269 269 269 269 267 266 266 266 265 266 267 266 266 267 267 265 263 262 262 261 261 261
311 311 311 310 310 310 311 312 312 314 313 311 309 307 307 310 313 311 311 311 312 313 314 312 311 310 309 309 307 307 307 307 305 302 297 294 293 289 285 284 284 282 279 277 276 275 273 271 270 268 267 266 266 267 268 269 268 266 266 266 267 268 268 268 269 269 269 268 267 266 267 266 266 267 267 266 266 266 266 265 263 262 262 261 261 262
312 313 312 311 311 312 312 312 312 313 312 310 309 309 308 308 310 311 311 311 311 313 313 312 311 309 308 309 308 306 305 305 303 300 296 292 290 287 284 282 282 280 277 275 274 273 272 270 268 267 266 265 265 266 267 269 268 266 265 266 267 268 268 268 269 269 268 267 267 267 267 267 267 268 267 266 265 265 265 264 262 261 262 261 261 262
313 314 314 312 312 313 313 312 311 311 310 308 308 310 309 307 308 310 311 311 311 312 313 312 310 308 306 308 309 307 305 304 301 298 296 293 288 285 283 282 280 278 276 274 273 272 270 269 267 266 265 265 265 265 267 269 270 267 265 266 267 268 268 268 268 268 267 267 267 268 268 268 268 268 267 265 265 264 264 263 261 261 261 261 261 262
313 313 313 313 313 312 311 313 313 313 311 308 307 309 310 308 308 308 309 310 310 310 312 312 311 309 306 306 307 308 307 305 301 297 294 291 287 284 282 280 278 276 274 273 271 270 269 268 266 266 265 264 264 265 266 268 270 268 267 267 268 268 268 268 267 267 266 267 267 268 268 268 268 268 267 266 265 264 263 262 260 260 261 261 261 262
313 313 313 312 313 314 313 314 313 312 311 309 307 307 308 309 308 308 308 307 307 308 310 310 309 309 308 306 307 308 307 305 302 297 293 290 287 283 281 279 277 275 274 272 271 269 268 267 266 266 265 264 264 264 265 266 268 268 268 268 268 268 268 267 267 266 266 266 267 268 268 268 268 268 267 266 265 265 264 263 261 260 260 261 262 263
314 314 314 313 313 314 313 313 313 312 312 311 308 307 306 307 307 307 307 307 306 307 308 308 308 308 308 307 306 307 306 305 302 298 294 290 286 283 281 280 277 275 273 272 270 269 267 267 267 266 265 264 263 263 264 265 266 267 268 268 268 268 267 266 266 266 266 266 267 267 267 268 268 268 267 267 266 264 263 263 262 261 261 262 262 264
313 313 315 315 314 313 313 312 313 313 313 312 310 307 306 306 306 306 306 306 306 307 307 306 306 306 306 306 305 305 306 305 302 299 295 291 287 283 281 279 277 275 273 271 270 268 268 267 266 266 265 264 263 263 263 264 265 266 267 268 267 267 266 266 265 265 266 266 266 266 267 266 266 266 266 267 266 265 263 262 261 261 262 263 264 265
313 312 314 315 314 314 313 313 312 313 312 312 312 310 307 306 306 307 307 307 306 306 306 306 306 305 304 304 304 304 305 304 301 298 295 291 287 284 281 278 276 274 273 270 269 268 267 267 266 265 265 263 262 262 262 263 264 265 267 267 267 266 266 266 265 265 265 265 266 266 266 265 265 264 264 265 265 265 265 265 264 262 262 263 264 265
314 313 313 314 313 313 313 313 312 313 312 312 311 311 310 308 307 307 307 307 307 307 306 306 306 306 304 303 302 301 303 304 301 297 295 292 288 284 281 278 276 274 272 270 269 268 267 267 266 265 264 263 262 262 262 262 263 265 266 267 266 266 266 266 266 265 265 265 265 266 265 265 264 263 263 262 261 261 262 264 266 266 265 263 263 264
Wind_Speed
2 1 4 7 7 8 9 8 6 5 6 5 4 4 5 5 7 6 4 4 0 2 9 9 9 14 16 18 18 10 5 10 16 12 11 12 10 10 11 13 14 15 12 12 18 24 28 30 31 32 33 33 32 30 29 27 25 22 20 18 16 14 13 13 12 11 9 7 5 5 4 5 5 6 6 6 7 8 8 10 12 15 16 17 18 19
3 4 9 10 9 7 6 6 6 5 5 4 5 4 4 5 7 7 2 4 1 2 7 6 6 14 16 16 16 11 7 15 18 14 14 15 12 10 12 15 15 12 8 9 16 22 27 30 32 33 34 35 34 33 32 29 27 23 21 19 16 15 14 14 12 10 8 6 5 5 5 6 6 6 7 7 8 8 9 11 13 15 16 17 18 19
1 6 12 7 6 5 5 5 7 6 5 3 3 2 4 4 5 6 3 3 1 2 5 6 7 14 18 17 17 16 16 19 16 12 15 15 13 11 13 15 13 11 9 11 14 19 26 29 31 33 34 36 36 34 33 30 27 25 22 20 17 15 15 13 12 10 8 6 5 5 5 7 7 6 7 8 9 10 11 12 14 15 17 18 19 20
3 8 8 5 8 8 5 4 6 5 3 3 3 3 5 3 1 4 4 3 1 2 4 6 9 13 16 16 17 17 16 17 14 10 13 13 13 14 14 13 12 14 15 14 14 16 21 26 28 31 33 35 34 34 34 32 29 27 24 22 19 16 14 12 11 10 8 6 5 5 5 6 8 7 8 9 10 11 13 14 15 16 17 19 20 21
8 6 2 6 6 7 6 3 5 5 2 3 5 6 6 4 5 6 3 3 2 1 3 6 10 10 7 9 13 7 4 10 11 10 13 12 11 11 10 11 13 15 16 16 16 15 17 22 27 31 33 34 35 35 36 35 31 28 25 22 19 16 13 12 11 10 8 8 6 6 6 7 7 8 8 9 10 12 13 15 16 16 17 18 20 21
9 5 6 7 3 5 6 4 5 8 3 3 6 11 10 7 7 4 3 4 3 3 2 4 7 7 2 4 10 4 3 6 5 7 13 11 9 9 10 11 13 14 14 15 15 14 17 22 26 30 33 34 36 37 38 36 33 29 25 22 19 16 13 12 11 10 10 9 7 6 6 7 7 9 10 9 11 13 15 16 16 17 17 18 20 21
3 0 4 6 6 5 5 5 6 8 5 2 4 7 8 5 4 2 1 2 0 3 2 3 2 8 3 2 8 5 4 9 7 9 14 10 7 9 11 12 11 12 12 12 12 14 17 21 25 29 33 36 37 37 38 36 33 30 25 23 21 17 14 12 11 11 10 9 8 7 7 7 8 10 11 11 12 14 15 17 17 18 18 19 20 22
2 3 3 5 6 5 5 6 7 9 7 4 3 4 6 6 5 4 3 1 3 2 3 1 3 8 8 6 9 8 7 11 11 13 18 13 8 10 12 11 12 13 12 11 12 14 17 22 27 30 33 36 36 36 37 37 35 30 26 24 21 17 14 13 12 11 10 9 8 7 7 8 8 10 12 12 13 15 16 17 18 18 19 20 21 23
3 6 6 7 5 5 6 5 8 12 6 4 3 5 6 6 5 4 4 2 1 3 4 4 4 5 11 5 3 3 6 11 13 14 18 16 10 9 11 12 12 12 11 11 13 15 17 22 29 32 33 35 35 37 39 39 36 31 27 25 21 18 15 13 12 11 10 9 8 7 7 9 9 10 12 13 14 15 16 17 18 19 20 21 23 24
2 5 7 8 6 6 4 1 4 8 4 3 6 6 5 5 5 4 3 2 2 2 7 7 7 4 10 4 4 2 3 9 12 12 15 14 9 8 9 11 10 9 8 11 13 14 16 22 28 30 31 32 34 37 39 39 36 32 29 26 22 18 15 13 12 11 10 9 8 8 8 9 10 10 11 13 15 15 16 18 19 19 21 23 24 25
1 1 3 4 4 5 5 3 2 2 4 6 6 5 6 5 4 3 1 3 1 5 8 8 12 9 8 3 6 4 5 9 9 8 10 10 8 8 9 9 8 7 8 10 11 10 12 19 24 27 29 31 33 35 38 38 36 33 30 27 23 18 15 14 13 11 10 9 8 8 8 9 10 10 11 13 15 16 17 19 20 21 23 25 26 27
2 0 2 2 3 5 6 5 4 3 4 5 4 4 3 3 3 4 4 3 1 6 5 4 8 9 9 6 4 5 6 7 9 8 10 11 10 10 8 7 7 7 8 8 8 7 9 13 19 25 28 29 32 35 37 38 37 34 30 27 23 19 15 14 13 11 10 9 8 8 8 9 9 10 11 13 15 16 17 19 21 23 25 27 28 28
2 4 3 1 2 4 6 5 3 4 2 3 4 5 3 3 3 3 3 1 3 7 3 3 3 5 12 11 6 8 10 10 10 10 10 10 10 9 6 6 6 6 7 7 7 8 9 11 14 22 27 28 32 36 37 38 36 34 31 28 24 19 16 14 13 11 10 9 8 8 8 9 9 9 11 12 14 15 17 18 20 23 25 27 29 29
3 3 2 4 3 4 8 6 3 2 3 5 5 5 3 2 1 3 4 2 5 8 3 3 3 4 9 8 11 16 17 15 12 11 10 8 9 8 4 4 5 5 7 7 7 8 10 11 14 21 26 28 31 34 36 37 36 34 31 28 24 19 16 14 13 11 10 9 9 8 8 8 8 9 10 12 14 15 17 18 20 22 24 27 29 30
4 7 4 7 3 5 11 7 4 6 5 4 4 5 5 5 4 4 4 4 7 7 4 1 2 4 5 3 8 14 13 12 11 10 8 7 8 5 3 3 4 5 6 6 7 10 11 12 16 21 25 28 30 33 35 36 35 34 31 29 24 19 16 15 13 12 11 10 9 8 8 7 8 9 11 12 14 15 17 19 20 23 25 27 30 31
4 9 4 2 1 5 7 3 4 8 4 2 3 4 3 5 5 3 3 4 1 5 5 3 4 6 4 2 5 5 4 7 10 8 6 10 11 5 4 6 5 6 6 6 8 10 10 12 16 20 23 27 29 31 34 35 36 34 32 29 24 19 17 15 13 12 11 10 9 8 7 7 8 9 11 13 14 16 17 19 21 23 25 27 30 32
3 6 3 3 2 2 3 1 2 3 3 3 2 3 4 4 5 2 3 1 4 3 7 2 5 11 6 4 5 4 4 9 9 6 8 13 11 6 6 7 7 7 7 7 9 9 9 11 16 21 24 27 29 31 34 36 36 35 32 29 24 19 17 15 13 13 11 10 9 7 6 7 8 9 11 13 15 16 18 20 22 24 26 28 29 31
4 4 3 2 0 1 1 1 2 2 3 6 3 5 3 2 4 3 2 3 2 5 6 4 11 17 12 7 1 4 6 12 10 7 10 12 8 7 8 8 8 8 6 7 8 8 8 11 16 21 25 29 31 33 35 36 36 34 32 29 24 20 18 15 14 13 11 10 8 6 6 6 8 10 11 13 15 17 18 21 22 24 26 28 29 31
3 3 4 1 2 1 2 1 1 3 2 5 4 3 3 3 2 2 2 3 4 4 5 10 16 18 14 9 4 4 10 12 10 9 10 11 10 9 9 10 10 7 5 7 8 8 9 11 16 21 24 27 31 32 34 36 35 33 31 27 22 19 17 15 14 12 10 9 7 6 6 6 8 10 12 13 15 17 19 21 23 24 26 28 29 31
3 4 4 1 1 1 2 1 5 3 1 2 1 1 2 2 4 3 3 3 3 3 5 12 15 16 10 6 6 9 12 11 9 9 10 12 12 10 9 10 10 8 7 8 8 9 10 11 16 22 25 27 30 31 33 35 34 32 29 24 21 18 17 15 13 12 10 8 6 5 5 7 8 10 12 13 15 17 19 21 22 24 26 27 29 31
3 3 5 1 2 1 4 6 9 10 7 4 3 3 2 1 2 1 1 2 3 4 4 7 12 16 7 7 7 9 9 10 10 9 10 11 11 10 10 10 9 8 8 8 8 10 10 11 15 21 24 25 27 29 32 33 33 31 27 24 21 19 17 15 13 12 9 7 5 5 5 6 8 10 12 13 15 18 19 20 22 24 26 27 29 31
3 4 5 3 2 6 8 5 3 6 9 9 8 8 9 6 4 2 5 3 3 4 5 4 10 18 7 7 5 6 6 8 10 10 10 9 11 11 10 10 9 8 9 10 10 10 9 9 13 18 22 24 26 28 31 32 32 30 27 24 21 19 17 15 13 11 8 6 5 4 5 6 8 10 12 13 15 17 19 20 22 23 25 27 29 31
3 2 4 6 7 7 5 2 1 1 4 5 5 6 7 6 7 7 9 5 2 2 3 3 6 18 8 6 4 5 7 8 10 10 9 8 10 10 9 9 8 8 9 9 8 8 7 8 12 17 20 23 26 27 30 31 31 30 27 24 22 20 17 15 12 10 7 5 4 3 5 7 8 10 11 13 15 17 18 20 22 23 25 27 29 30
2 2 4 6 6 3 3 4 3 2 3 3 5 5 6 7 9 9 6 3 3 5 3 4 6 19 10 5 4 5 5 6 7 9 9 8 7 7 8 8 7 8 9 7 6 6 5 7 11 14 17 21 25 27 29 31 30 29 27 24 22 19 17 14 12 9 7 5 3 3 4 6 8 9 11 13 16 17 18 20 22 24 26 27 27 27
4 4 5 5 5 5 4 2 3 4 1 4 5 5 8 10 9 3 1 1 4 7 8 5 10 18 10 2 3 3 4 6 8 7 8 7 6 6 7 7 7 8 7 6 6 7 7 9 11 12 16 20 23 26 29 30 30 29 27 25 22 19 16 14 11 9 7 4 2 2 4 6 8 10 12 14 16 17 19 21 23 25 25 26 27 26
6 5 7 7 8 10 11 9 4 1 3 3 2 6 11 14 13 7 3 6 9 6 10 7 15 18 14 10 11 10 8 8 9 7 6 6 7 7 7 8 8 7 8 8 8 8 9 10 10 11 15 19 22 26 29 30 30 29 27 24 21 18 16 14 11 9 6 4 2 2 4 6 8 10 12 14 16 17 19 21 22 25 25 25 26 27
3 4 10 14 15 14 14 13 5 6 5 4 6 9 12 15 16 11 7 11 9 4 6 15 23 20 18 21 24 23 17 14 13 9 6 7 8 9 9 10 8 7 8 8 8 8 9 10 11 12 15 19 22 25 29 30 30 29 27 24 20 18 16 14 11 9 6 4 2 2 3 6 8 10 12 14 16 17 19 20 22 24 25 24 25 27
3 5 12 17 19 16 17 18 8 8 7 9 9 12 13 14 15 14 16 17 7 5 10 22 22 17 17 23 29 30 25 19 16 14 11 10 10 9 9 9 8 7 7 7 8 10 11 12 12 12 14 19 23 25 27 29 29 29 27 24 21 18 16 14 12 9 6 4 2 1 3 5 8 10 12 14 16 17 19 20 21 23 24 25 25 27
3 7 11 14 18 16 17 19 10 7 8 8 9 13 15 16 17 20 24 22 12 11 19 20 16 15 19 26 30 30 25 18 16 16 14 11 9 7 7 8 8 9 9 10 11 13 13 13 13 14 15 18 23 26 26 26 27 26 25 23 21 18 16 14 12 9 6 5 2 1 3 5 7 9 12 13 15 17 18 20 21 22 24 24 26 27
3 7 12 14 16 16 17 20 13 8 11 13 10 13 17 17 18 20 25 26 23 23 22 17 16 18 21 27 28 25 21 14 12 16 17 16 14 11 10 9 9 10 11 12 14 14 14 14 14 15 15 17 22 25 25 26 27 27 25 24 21 19 17 14 11 9 7 5 2 1 2 5 7 10 12 13 15 17 18 19 21 22 23 24 25 26
3 6 10 9 10 14 18 20 13 9 13 17 15 17 23 21 15 18 25 24 21 20 19 17 16 18 23 27 23 21 19 14 15 21 23 21 19 16 15 13 11 12 12 13 14 13 13 13 13 14 15 18 22 25 26 27 28 27 26 24 22 20 17 14 12 10 7 5 2 1 3 6 8 10 11 13 15 16 18 19 20 21 23 24 25 25
4 4 4 5 7 12 16 16 9 8 9 12 16 25 30 23 16 20 23 18 14 14 16 16 15 17 22 20 15 16 15 13 18 23 21 20 17 13 15 16 14 12 13 13 13 13 13 14 16 17 17 19 23 26 28 30 30 28 27 25 23 21 18 14 12 10 7 5 2 1 4 6 8 9 11 13 15 16 18 19 20 21 23 24 25 25
4 4 4 6 8 12 15 12 4 5 4 10 15 21 24 21 21 23 21 16 14 12 13 14 15 18 19 15 15 17 14 13 19 20 18 17 14 12 14 16 14 13 12 13 13 14 15 15 16 18 19 22 26 28 30 33 33 30 28 27 24 21 18 15 12 10 7 4 2 1 4 6 7 9 11 13 14 16 18 19 21 22 23 25 26 24
4 6 6 6 7 11 10 4 3 4 10 13 8 7 14 21 24 22 20 20 18 14 13 15 19 22 21 18 19 19 17 18 21 22 17 10 8 12 15 15 13 12 11 11 12 13 14 14 14 16 21 25 27 29 31 33 33 31 29 26 24 21 18 15 12 9 7 4 2 2 4 5 7 9 11 12 14 16 18 20 22 23 24 25 26 24
7 8 7 5 6 6 1 3 3 9 12 8 4 6 14 16 15 14 16 19 19 18 18 19 22 25 25 24 21 19 20 22 23 25 16 7 8 14 16 15 13 11 11 9 10 12 13 13 12 14 21 26 29 31 33 32 31 30 28 25 23 20 17 15 12 9 7 5 2 2 4 5 6 8 10 12 14 16 19 21 22 23 25 26 26 26
12 9 7 6 6 3 2 6 10 9 5 8 13 16 12 4 3 6 13 17 17 18 18 18 21 25 26 26 22 19 20 17 18 22 11 9 13 17 15 15 14 11 10 10 11 13 14 17 19 21 25 29 33 35 35 33 32 31 28 25 23 20 17 15 12 9 7 5 3 2 3 4 5 7 10 12 14 16 19 21 22 24 25 26 28 28
15 12 8 7 8 6 6 10 9 7 8 12 20 19 9 7 9 9 11 16 16 17 18 16 20 26 25 24 23 18 13 7 11 17 10 10 15 16 12 13 12 9 10 9 10 13 16 20 23 25 30 34 36 37 36 34 33 31 28 25 22 20 18 15 12 10 8 5 3 2 2 3 5 7 9 12 14 16 19 21 23 24 24 26 29 30
17 14 11 9 8 8 9 9 6 7 8 14 24 20 8 11 13 11 8 12 17 21 19 16 21 26 22 21 20 11 3 3 9 16 11 8 12 10 8 10 9 7 7 7 8 11 16 22 25 31 37 38 36 36 36 35 33 31 29 25 23 20 18 15 13 10 8 6 4 2 2 2 4 7 9 12 14 16 18 20 22 23 24 25 27 30
18 13 12 11 7 7 9 8 8 10 9 14 25 20 7 10 9 7 3 10 20 26 21 17 22 23 19 19 15 4 2 5 11 13 10 6 8 7 7 7 5 4 5 9 14 15 20 27 31 34 38 38 34 34 36 36 34 32 29 26 23 21 18 16 13 10 8 6 4 3 2 3 4 6 9 12 14 15 17 19 21 23 24 24 26 29
15 10 10 11 10 12 12 9 8 8 8 14 21 14 6 9 9 8 1 13 21 23 18 17 20 20 18 16 10 6 7 10 11 10 5 3 4 4 6 6 6 7 7 9 14 20 28 35 35 32 33 36 36 37 37 36 33 31 30 26 23 21 18 15 13 10 9 7 4 3 3 3 5 6 9 11 13 14 17 18 20 22 24 25 26 28
9 8 9 10 13 15 14 12 9 6 8 15 15 6 10 9 7 5 11 18 18 12 9 14 17 17 16 12 8 7 11 14 12 6 3 5 4 4 4 3 5 7 9 13 19 26 31 36 36 35 34 35 37 38 38 36 32 30 29 26 23 20 17 15 13 11 9 7 5 4 3 4 5 6 8 10 12 14 16 17 20 21 23 24 26 26
5 5 7 9 11 12 12 13 10 7 10 13 9 10 10 5 5 12 18 17 12 5 6 10 13 13 12 11 11 11 13 13 11 5 5 6 6 6 6 6 7 7 9 16 25 29 28 26 29 32 31 32 36 38 37 35 32 29 27 25 22 20 18 15 13 12 9 7 6 5 4 4 5 6 8 10 12 13 15 17 19 21 22 23 24 24
9 6 6 8 8 8 9 9 7 8 11 12 11 8 7 11 14 16 16 14 11 7 7 8 10 10 10 11 12 14 13 11 9 6 6 6 6 7 8 9 9 7 8 14 22 29 30 27 28 31 30 31 35 36 36 35 32 30 27 24 22 21 19 16 14 12 10 8 7 5 4 5 5 7 9 10 12 13 15 17 19 21 22 22 24 24
10 8 6 7 8 7 8 9 10 12 11 16 17 12 15 20 19 16 14 13 13 9 7 7 10 10 11 12 13 14 13 10 8 8 8 7 7 8 9 9 9 8 9 12 21 32 36 31 28 29 30 31 33 33 34 34 33 30 26 23 23 22 19 17 15 13 11 9 7 5 5 5 5 7 9 11 13 14 15 17 19 20 21 20 23 23
13 15 13 11 10 11 13 11 10 10 9 14 18 19 20 23 23 21 17 13 11 9 7 8 10 10 12 14 13 11 11 11 10 11 10 10 10 10 9 8 7 7 9 14 23 34 39 35 32 29 27 27 31 31 31 32 33 31 26 24 24 22 20 18 16 14 12 10 7 6 5 5 5 7 10 12 14 15 15 17 18 19 20 20 21 21
16 19 17 13 9 12 15 10 6 9 12 14 17 17 17 18 20 20 18 13 11 9 7 7 9 10 11 12 11 10 11 12 12 12 11 11 11 11 11 9 7 9 12 15 21 30 35 35 32 27 22 23 27 29 28 28 30 30 28 26 25 22 20 18 16 14 13 10 8 7 5 5 6 8 10 12 14 15 15 16 17 18 19 19 19 21
11 14 13 12 10 11 12 11 12 17 18 15 15 16 17 17 15 14 14 14 14 14 11 9 10 9 9 10 12 14 13 12 12 12 11 10 11 12 14 12 10 10 12 16 26 35 34 27 21 18 17 20 25 28 27 26 26 27 28 28 25 22 20 19 16 15 14 11 9 8 6 5 6 8 10 13 15 16 15 15 15 17 18 18 19 23
7 10 11 13 14 14 14 13 15 17 16 12 11 12 15 17 17 14 13 14 15 16 14 11 9 8 8 10 14 15 14 12 13 13 11 11 11 13 14 12 11 11 11 18 33 39 30 18 14 15 16 20 26 30 28 26 25 27 28 27 25 23 22 19 17 16 14 12 10 9 8 7 7 8 10 13 16 17 15 14 15 17 18 18 20 23
2 5 5 6 11 14 15 14 13 14 14 12 11 12 14 17 18 17 16 16 15 15 13 10 10 10 11 13 14 14 14 13 14 14 14 12 11 13 15 13 11 10 10 20 35 39 29 21 20 20 19 23 30 32 30 27 28 28 28 27 25 23 22 21 19 17 15 13 11 10 9 8 7 8 10 12 15 16 14 12 12 15 17 18 18 20
3 6 3 4 9 11 11 12 13 13 14 15 16 17 18 17 16 17 16 15 16 17 16 15 14 13 12 13 14 14 14 15 14 14 14 13 13 15 17 17 12 7 9 21 32 34 31 31 33 31 28 30 33 33 31 30 29 29 28 27 26 24 23 22 20 18 16 14 12 11 10 8 8 8 9 10 13 16 16 14 11 9 12 16 18 18
10 12 10 10 14 14 13 14 13 12 15 17 18 19 16 14 14 17 18 18 19 19 18 18 18 16 15 15 14 14 16 17 15 14 14 14 13 13 16 19 15 10 13 22 24 22 22 29 35 35 33 33 35 34 33 32 31 30 29 28 26 24 23 22 21 19 17 15 13 12 10 8 8 8 9 9 10 12 16 17 15 12 11 13 17 19
Wind_Direction
101 166 230 221 214 209 211 198 187 176 145 140 152 181 224 236 266 255 234 284 166 210 262 243 243 260 260 263 269 263 198 233 249 240 236 236 227 217 214 221 221 223 227 212 207 208 207 205 199 196 194 192 192 194 194 193 193 195 195 197 199 200 203 207 209 213 219 229 243 261 280 295 311 308 300 308 317 323 328 331 331 332 335 338 340 341
97 203 238 225 207 200 197 176 137 120 116 113 156 200 253 227 254 268 258 312 345 172 266 277 272 266 261 261 266 266 238 243 245 236 237 235 229 220 216 224 223 223 220 196 205 206 205 205 200 197 195 192 192 192 193 194 194 194 195 198 198 198 203 207 211 215 223 233 250 270 287 301 309 306 302 310 317 319 323 326 326 328 333 335 337 339
86 236 245 219 164 116 90 127 124 117 122 115 139 175 263 238 267 294 336 349 2 184 271 296 288 272 267 263 259 252 245 252 249 227 232 235 228 222 219 225 223 217 214 204 206 203 202 204 200 198 196 194 194 193 194 195 195 194 195 198 197 199 204 207 212 217 226 237 254 272 287 301 306 307 306 311 315 317 321 323 324 328 332 334 336 338
204 253 254 181 142 118 86 101 113 106 123 151 148 176 252 243 262 284 304 330 227 204 280 290 279 269 266 263 256 249 245 259 264 238 233 231 223 224 221 221 215 212 215 211 209 203 201 202 199 198 197 195 195 194 194 195 194 195 196 198 197 200 205 207 213 218 226 235 250 269 285 295 297 301 306 309 312 316 318 320 324 330 333 334 336 336
226 243 158 120 134 127 121 140 141 150 228 238 196 206 238 234 221 237 280 320 299 331 330 309 292 271 256 255 255 264 275 269 266 250 247 237 224 228 226 222 215 213 215 210 208 202 197 200 200 199 197 196 195 195 196 196 195 196 198 199 198 201 205 208 213 216 222 230 242 259 275 287 292 298 302 304 309 313 313 315 324 330 332 333 333 333
247 230 133 124 123 117 139 191 192 177 206 290 231 216 224 231 232 245 342 359 356 335 331 358 318 284 274 262 261 285 334 278 261 247 251 240 221 225 227 226 220 217 217 212 208 200 198 200 200 199 198 196 196 197 197 197 196 198 199 198 198 201 205 208 211 214 220 227 238 251 263 277 288 295 296 296 302 308 310 313 322 328 330 331 331 332
255 220 118 141 156 156 176 233 224 173 151 288 247 209 208 207 204 203 35 22 283 260 289 45 312 275 281 250 257 263 277 277 278 269 264 248 210 215 225 226 220 219 217 212 207 199 199 199 198 200 199 198 198 197 197 197 198 199 198 197 197 200 205 207 209 213 219 225 236 252 264 274 281 287 294 302 305 309 313 317 323 328 331 332 330 331
142 100 83 123 138 159 196 244 218 159 140 240 239 128 140 151 166 174 136 173 235 287 314 154 194 274 274 237 246 248 255 274 272 268 272 263 222 212 225 226 221 219 211 204 205 201 201 200 199 201 200 199 199 196 195 197 198 197 196 196 196 199 204 207 209 214 221 227 237 251 263 271 275 281 294 307 310 312 315 319 324 326 328 331 330 330
116 149 172 148 134 176 205 235 193 161 154 239 193 116 119 131 142 141 125 181 287 12 300 237 161 275 275 239 257 258 230 259 260 251 260 262 243 219 226 229 224 221 209 202 204 204 203 201 201 202 199 199 198 195 195 197 198 196 195 195 195 197 202 206 210 215 221 229 240 250 260 270 276 283 295 305 308 311 314 317 321 321 323 328 329 328
80 190 189 149 154 201 204 277 184 172 184 185 136 98 73 73 77 79 111 138 40 328 261 235 165 227 274 223 116 73 192 237 251 247 250 257 253 233 232 233 226 218 208 206 209 208 205 203 202 200 198 199 198 195 195 197 197 196 194 193 193 197 202 206 211 215 221 229 239 250 260 272 282 290 299 306 309 313 314 314 316 317 321 327 327 325
351 264 195 153 173 182 137 81 61 130 143 133 112 72 51 44 49 49 62 90 43 266 258 231 178 189 273 245 151 178 198 206 221 241 253 255 254 242 235 233 222 210 208 209 212 208 201 200 198 196 197 198 196 195 196 196 196 195 193 192 193 197 201 206 213 217 223 230 240 252 261 272 284 294 302 307 310 314 315 314 315 318 324 326 324 321
351 80 229 215 154 127 102 74 34 43 96 108 94 74 42 345 10 21 358 51 246 257 257 225 176 185 245 247 187 230 250 219 204 217 236 238 242 242 232 227 218 208 209 208 204 195 184 186 189 192 196 195 193 195 196 196 195 194 192 192 192 195 201 208 214 220 226 233 242 253 262 272 284 294 301 304 306 311 314 313 316 322 325 325 321 319
289 213 211 195 169 148 119 89 30 5 46 99 98 86 57 325 348 345 309 137 225 258 244 153 145 220 246 245 234 252 260 242 220 217 220 219 229 234 221 214 216 207 207 202 194 187 183 183 186 191 193 192 192 195 195 194 193 193 192 192 192 195 202 209 215 222 229 236 244 253 262 275 286 294 300 301 303 309 311 311 315 320 321 319 317 316
295 285 151 160 243 185 160 164 194 223 177 159 145 125 135 144 59 277 272 280 270 271 260 147 152 248 269 258 221 224 233 229 222 226 222 216 225 229 215 202 207 211 207 200 193 190 192 193 192 193 192 192 194 194 193 191 191 191 191 192 194 195 201 209 215 223 230 238 246 254 264 277 287 295 302 303 306 312 313 312 314 317 316 313 312 311
242 280 198 172 223 178 180 196 163 138 150 175 159 140 154 154 166 225 235 252 276 289 288 226 187 226 263 264 208 216 234 234 226 225 223 240 247 241 252 230 213 219 210 198 199 199 201 199 194 193 194 194 195 193 190 189 189 190 190 192 194 195 200 207 214 222 231 238 245 254 266 280 290 300 307 308 313 317 315 314 315 316 314 312 311 310
217 267 243 169 281 164 175 215 109 114 131 197 133 120 168 178 170 208 220 196 240 316 288 230 220 230 221 240 230 223 247 242 236 229 221 247 249 233 254 253 232 226 212 198 205 207 206 199 194 195 196 195 194 191 189 189 188 189 189 192 196 197 200 207 213 222 231 238 245 256 268 283 296 305 309 313 319 320 315 316 316 316 314 313 313 312
199 274 314 39 343 131 152 237 117 131 170 161 145 172 204 181 139 148 270 32 69 285 272 249 259 273 282 268 238 194 203 231 237 226 222 241 245 229 241 247 237 231 215 203 209 207 200 195 196 198 196 194 192 191 190 189 189 189 189 191 193 195 199 205 214 223 230 237 245 258 273 291 304 309 313 317 321 319 317 319 319 317 316 315 315 314
187 267 308 83 205 308 350 24 36 3 122 130 189 210 179 119 96 111 254 347 25 248 270 292 271 276 281 274 280 114 197 233 233 218 227 242 247 239 241 244 242 236 218 211 213 207 199 196 199 198 197 195 193 191 190 188 188 190 190 191 192 193 198 204 213 222 228 236 246 261 280 298 308 310 316 321 321 318 319 322 321 319 318 318 317 315
165 240 287 123 190 284 3 85 76 339 66 125 201 202 116 143 161 114 169 228 250 236 272 283 275 274 265 252 264 207 209 226 228 220 234 244 242 239 241 245 245 236 215 214 213 206 203 202 200 197 195 194 193 191 189 186 186 188 188 190 192 194 198 204 212 220 225 234 247 267 287 302 310 314 323 324 320 320 322 324 323 321 320 319 317 315
143 209 249 242 248 312 41 181 192 208 49 54 286 10 48 165 170 170 168 183 211 202 261 279 280 277 253 194 202 221 212 213 214 215 227 233 234 232 231 239 240 225 217 217 211 207 208 205 201 197 193 191 190 188 185 184 183 183 183 185 188 191 196 203 211 217 222 231 248 271 290 305 314 322 327 324 321 323 325 324 323 323 321 318 316 315
95 210 226 218 335 261 193 205 199 190 174 164 186 185 218 182 125 215 231 127 148 180 231 262 271 273 258 143 175 213 206 201 197 203 218 224 231 231 225 230 230 219 219 216 211 211 208 202 197 193 191 188 185 183 182 181 179 179 181 183 186 190 195 202 208 214 220 227 246 273 293 310 323 328 325 323 325 327 327 326 325 323 320 317 316 316
146 205 212 176 233 236 225 221 201 191 175 174 190 191 193 184 136 198 249 218 156 192 206 200 258 268 259 113 158 197 184 200 196 199 213 215 222 228 226 228 223 218 221 217 215 211 201 196 188 185 184 181 180 180 179 178 176 176 179 182 187 192 196 201 206 209 218 227 244 274 302 317 326 328 325 326 328 328 328 328 327 325 320 316 316 318
132 147 208 222 231 237 254 322 13 215 148 153 207 197 182 176 156 188 229 226 159 214 209 111 266 266 259 100 130 180 172 201 201 198 210 215 222 228 231 232 225 222 226 220 214 206 194 188 180 178 179 179 179 179 175 173 173 175 178 182 187 191 195 200 204 206 212 225 246 283 312 321 325 325 326 329 329 329 330 329 328 326 321 317 316 318
109 136 203 240 262 293 360 19 6 355 88 149 236 197 171 198 198 204 219 186 173 213 187 98 257 264 271 89 130 199 193 214 217 207 216 225 231 238 240 237 228 226 229 221 205 196 182 174 173 176 181 181 180 177 172 171 172 174 178 182 187 190 193 197 200 203 209 217 248 296 313 319 323 324 327 331 330 330 332 330 328 327 323 318 316 317
181 185 187 219 268 280 287 319 344 338 258 215 232 180 188 213 208 211 27 106 238 210 160 162 247 258 269 84 128 217 211 230 241 229 229 236 237 243 245 240 233 227 225 213 197 186 177 178 181 184 184 182 179 175 172 171 171 174 178 183 186 187 189 194 197 200 204 210 241 291 310 317 323 328 333 334 332 332 333 329 327 326 323 319 317 317
183 184 181 196 225 236 242 244 238 222 204 225 223 177 196 207 197 193 211 223 234 191 140 190 247 256 269 283 276 258 229 233 247 236 231 241 238 239 242 238 231 222 218 212 197 187 186 188 189 188 184 182 180 176 172 171 171 175 178 181 185 186 186 192 196 195 196 203 229 281 314 321 327 333 335 334 333 333 330 326 324 324 322 318 317 319
163 194 198 209 221 225 239 248 209 128 152 207 207 194 200 208 202 199 226 232 220 145 162 227 242 255 275 281 278 270 260 259 263 253 238 238 236 232 236 237 228 218 219 211 195 189 192 192 192 188 183 182 181 178 174 172 172 174 175 177 181 185 187 190 191 189 187 192 213 287 318 324 331 335 335 335 333 330 326 323 322 322 321 319 318 322
126 223 217 222 233 232 243 251 215 147 196 211 199 207 211 209 201 200 226 230 184 128 231 239 241 255 269 269 269 271 270 271 275 275 269 260 251 238 234 234 223 220 221 204 196 199 197 195 191 186 182 181 180 179 175 173 173 174 175 176 179 183 188 188 186 182 180 183 196 283 311 324 334 335 335 334 331 327 325 322 319 319 320 321 322 324
156 232 228 230 243 241 248 255 228 176 229 224 194 215 221 210 200 206 227 230 201 208 240 245 246 250 255 258 260 266 271 276 283 285 280 272 264 248 236 228 215 218 217 203 204 206 199 196 190 184 184 181 179 178 174 171 170 170 172 175 179 184 187 185 180 176 176 178 184 254 304 328 337 336 335 331 327 325 323 319 318 320 322 324 325 325
173 233 235 235 248 248 248 253 238 205 243 249 231 231 235 226 208 212 231 234 225 232 246 255 258 256 255 256 259 266 276 287 293 288 283 277 270 262 255 243 225 222 218 209 212 209 201 196 190 183 182 180 180 178 172 167 167 168 171 174 179 184 186 181 176 174 175 175 182 246 317 334 338 339 335 328 324 322 320 318 319 321 325 327 327 324
208 235 239 241 256 252 249 255 246 213 235 252 256 254 251 242 222 222 237 239 236 244 254 258 260 260 256 257 264 274 283 292 287 279 278 277 274 272 271 264 243 228 222 216 214 208 199 193 187 183 184 184 183 177 170 166 166 169 172 174 179 183 182 178 176 173 172 170 176 269 341 345 342 339 332 326 324 321 319 320 322 324 328 329 327 325
220 236 245 244 254 250 252 261 249 207 227 252 253 252 252 249 237 235 239 241 237 243 255 257 253 252 256 261 269 270 270 272 271 269 270 271 272 270 269 268 255 236 226 221 214 203 195 191 187 187 187 184 180 176 170 167 166 168 171 174 179 180 176 175 175 170 166 164 157 358 349 349 344 338 330 326 323 322 323 324 326 329 331 329 328 327
197 208 221 228 244 253 256 258 219 152 217 249 243 245 251 253 249 247 251 251 235 226 242 251 249 254 262 269 269 265 262 259 260 262 263 267 270 264 258 259 257 245 230 219 210 199 195 193 191 190 186 181 179 177 172 168 167 169 173 176 177 176 173 173 170 163 159 154 132 21 357 351 343 334 329 327 326 326 328 329 331 334 333 330 329 327
200 213 224 221 238 252 250 233 123 166 232 247 242 224 236 247 250 251 256 255 244 231 234 246 258 265 268 267 264 264 266 262 262 264 260 249 252 259 256 254 252 248 238 221 208 201 197 195 191 185 181 178 177 173 170 169 169 170 172 174 173 172 171 168 162 158 152 142 118 30 3 351 340 332 328 328 330 331 333 334 335 336 335 332 330 325
207 215 225 223 242 257 196 120 194 225 233 254 294 240 234 245 255 257 258 254 249 245 243 245 256 262 264 264 262 261 263 264 268 272 263 202 210 251 260 261 254 244 240 225 203 200 195 186 180 176 175 174 171 167 166 166 166 166 168 170 170 168 167 162 156 152 145 136 118 37 8 348 336 331 329 332 335 337 338 339 337 336 336 333 328 323
221 223 225 223 235 245 141 196 229 247 280 312 292 265 248 231 223 252 260 255 246 244 243 243 250 255 258 262 261 258 260 265 273 276 260 180 214 242 247 256 258 245 236 223 200 198 193 182 179 174 170 168 166 164 163 163 164 164 164 167 167 164 162 158 153 149 145 140 123 56 12 346 336 333 334 337 341 343 342 340 338 337 336 332 327 324
222 224 225 224 221 218 220 225 237 283 307 288 270 259 232 193 202 216 249 259 251 241 235 233 244 250 252 256 259 260 267 288 288 277 253 197 227 242 233 242 254 242 230 219 196 191 184 177 174 168 162 160 161 162 162 162 164 163 160 163 164 161 159 156 151 151 149 140 121 75 15 350 341 339 341 344 346 346 345 341 338 338 336 331 326 323
218 217 216 221 212 210 231 238 237 253 253 249 253 249 201 183 200 193 218 260 261 249 233 220 235 246 248 252 257 261 296 316 273 272 264 216 225 239 225 229 239 225 209 185 162 160 159 160 161 159 158 156 158 162 162 161 162 160 158 160 162 161 160 156 154 154 148 134 121 94 35 7 349 346 348 350 349 348 346 343 339 336 336 331 323 319
218 215 217 229 222 212 229 232 225 231 229 239 251 250 198 164 172 151 190 260 257 250 237 219 231 241 242 247 248 202 127 250 255 266 269 218 203 216 213 210 204 183 167 157 155 152 151 153 152 153 155 154 156 162 162 161 160 158 157 159 161 161 160 158 159 154 140 128 121 108 72 26 1 356 356 354 351 349 346 344 339 336 335 330 323 319
214 211 215 225 224 222 227 227 230 238 236 243 251 247 172 142 126 104 242 257 253 249 232 216 228 235 232 235 227 169 190 230 244 259 257 178 161 180 185 179 167 156 145 146 151 149 149 149 148 152 158 158 160 163 163 161 159 157 158 159 160 161 160 158 155 143 132 130 125 112 80 40 16 5 1 356 353 351 348 344 340 337 334 330 326 322
206 205 210 217 223 224 223 229 239 237 235 248 248 195 132 119 111 162 232 247 253 248 207 199 218 227 224 215 194 192 216 224 229 236 144 132 142 142 141 135 140 147 147 147 145 144 147 151 154 158 161 160 160 161 162 161 157 155 157 158 158 160 160 155 147 135 131 133 126 114 83 50 29 12 4 359 355 352 350 347 342 338 334 330 327 323
182 192 210 215 223 225 222 232 244 237 232 236 212 148 142 154 200 223 235 249 257 236 175 193 210 214 212 199 192 211 224 222 220 204 153 164 170 147 138 132 127 128 136 143 145 145 147 151 152 151 154 157 159 161 163 161 155 154 156 156 158 160 157 151 143 135 135 136 125 112 85 60 36 14 5 2 0 356 351 350 345 340 337 332 327 323
176 182 210 204 207 223 226 226 233 239 225 196 157 143 189 213 224 233 244 261 261 218 182 202 214 205 198 196 203 217 224 221 214 197 184 185 166 153 163 160 150 143 138 143 151 153 151 148 148 148 152 158 160 161 163 161 155 155 156 156 158 158 153 146 140 136 140 137 124 111 88 63 38 16 7 4 4 0 354 350 347 343 340 335 329 325
173 178 214 207 192 207 223 214 217 234 215 168 162 188 211 212 225 238 239 248 253 226 182 200 220 207 191 197 209 217 220 219 208 194 191 188 177 177 177 166 158 154 148 152 159 157 151 146 147 149 154 160 163 164 166 162 156 153 154 156 159 157 149 143 140 141 142 135 123 115 90 64 38 18 11 6 5 3 357 352 346 342 341 337 332 326
187 195 220 226 203 207 226 223 216 232 218 181 191 214 215 211 223 234 233 238 248 234 198 205 225 212 195 202 210 211 215 217 206 195 192 189 185 182 177 170 160 149 146 149 154 155 153 149 148 148 152 162 166 167 168 165 157 152 154 159 160 154 146 143 143 144 142 135 127 118 94 69 42 23 14 9 8 7 360 350 342 338 339 337 332 324
207 211 224 233 222 224 237 234 209 225 226 209 212 225 225 219 224 233 238 241 244 239 215 206 222 214 197 200 207 211 218 214 201 197 196 187 183 179 173 166 151 145 149 148 151 155 153 149 148 145 145 158 167 168 168 167 160 154 156 159 157 150 145 145 145 144 140 134 128 117 96 74 49 27 15 9 9 9 3 351 339 334 335 333 330 324
223 224 233 238 234 234 237 222 214 227 229 218 217 228 235 237 232 231 235 237 240 242 230 219 227 218 192 191 205 218 223 208 196 201 195 181 183 182 173 166 160 161 162 158 157 158 153 149 150 147 142 153 167 170 169 166 162 159 157 156 153 148 146 146 145 143 139 132 124 114 94 72 50 27 14 8 7 8 6 357 346 337 333 331 328 323
220 216 228 235 233 237 242 231 228 239 240 228 220 223 233 241 240 233 233 235 239 243 237 227 226 216 199 201 210 220 224 209 197 199 193 185 188 186 179 172 163 161 162 158 159 159 156 152 154 150 145 153 165 170 169 165 163 162 158 154 151 149 147 147 146 144 138 128 119 108 90 72 51 30 16 8 5 3 3 2 355 344 335 333 329 323
206 202 213 237 236 242 251 249 249 261 264 253 239 227 228 236 238 235 236 237 240 248 248 238 225 217 216 220 220 220 222 218 207 197 191 191 189 185 185 180 163 151 155 161 163 163 162 158 154 150 150 156 164 168 168 165 164 163 158 154 152 151 150 149 147 142 134 125 117 105 91 77 57 38 24 12 4 1 359 359 354 342 334 337 337 329
258 245 242 263 250 244 245 240 238 248 256 252 245 237 232 233 236 239 240 239 238 241 243 241 238 233 227 228 226 218 218 223 215 197 192 196 194 189 185 176 164 148 148 158 162 163 162 161 159 156 155 159 164 166 166 165 165 163 159 156 154 154 154 151 146 139 132 125 119 108 95 82 66 48 35 23 10 1 358 359 1 351 338 336 336 335
237 241 235 244 251 247 242 237 232 238 248 250 249 247 240 231 230 235 238 238 236 235 235 238 240 239 235 234 227 216 219 226 215 195 198 205 197 186 179 172 167 160 153 154 157 158 160 163 162 157 156 160 165 165 165 165 164 162 160 158 156 156 156 153 147 140 133 127 121 112 102 88 72 58 45 36 21 6 359 357 1 12 11 350 341 341